Location: Copper Breaks State Park
(34.1132°N, 99.7492°W)
Time: 10:26:06
(UTC-05:00)

Daily predictions for brighter satellites

Satellite Brightness Start Highest point End
(mag) Time Altitude Azimuth Time Altitude Azimuth Time Altitude Azimuth
ISS -2.9 21:08:36 10° SSW 21:11:40 40° SE 21:14:45 10° ENE
CZ-2D R/B 3.2 21:08:10 10° SSE 21:11:57 69° ENE 21:15:45 10° N
Centaur D-1A AC-32 3.9 21:06:12 10° SW 21:13:26 25° S 21:16:38 10° ESE
USA 186 1.9 21:11:56 10° SSE 21:14:55 55° ENE 21:18:06 10° N
Cosmos 2056 Rocket 3.4 21:10:30 10° S 21:15:39 76° ESE 21:20:47 10° NNE
Cosmos 2074 Rocket 4.0 21:11:43 10° S 21:17:54 65° E 21:24:06 10° NNE
Cosmos 1371 Rocket 4.4 21:12:48 10° SSW 21:18:07 73° WNW 21:23:24 10° NNE
Meteor 2-3 Rocket 4.1 21:15:19 10° SSW 21:20:54 69° W 21:26:30 10° N
NOSS 2-2 (D) 4.4 21:17:00 10° SW 21:20:58 54° NW 21:25:24 10° NNE
OAO 3 Rocket 4.1 21:21:23 10° SSW 21:25:39 29° SSE 21:29:54 10° E
ATLAS 2A CENTAUR R/B 2.4 21:23:32 10° SW 21:26:37 17° S 21:28:06 11° SSE
Cosmos 1674 Rocket 4.2 21:24:49 10° N 21:28:58 37° E 21:33:03 10° SSE
Resurs 01 Rocket 4.0 21:26:06 10° SSW 21:29:37 23° W 21:33:10 10° NW
SL-27 R/B 3.0 21:29:40 10° N 21:33:08 42° ENE 21:35:57 14° SE
Cosmos 1340 Rocket 4.4 21:31:14 10° SSW 21:34:56 38° WNW 21:38:43 10° N
Cosmos 1606 4.0 21:32:26 10° NNE 21:35:39 23° ENE 21:37:46 16° ESE
Sich 1 Rocket 3.9 21:32:29 10° SSE 21:36:54 49° E 21:41:18 10° NNE
Cosmos 1892 3.4 21:34:12 10° SSW 21:37:57 58° W 21:41:46 10° N
PSLV R/B 3.3 21:34:39 10° WNW 21:38:05 78° NNE 21:40:36 17° ESE
Cosmos 1356 Rocket 4.2 21:34:44 10° SSW 21:38:52 57° W 21:43:05 10° N
Meteor 1-27 Rocket 4.4 21:34:34 10° N 21:39:37 35° ENE 21:43:36 15° SE
Meteosat 1 Rocket2 4.3 21:35:12 10° WSW 21:40:24 52° S 21:47:26 13° ESE
SL-08 ROCKET BODY 4.4 21:38:59 10° S 21:45:03 87° W 21:51:01 10° N
CZ-4 DEB 2.7 21:43:16 11° SSE 21:46:19 88° W 21:49:29 10° NNW
Cosmos 1782 2.9 21:43:10 10° N 21:47:10 61° E 21:50:32 14° SSE
GPS 2-05 Rocket1 2.9 21:43:47 10° WSW 21:47:31 88° SSE 21:50:40 13° ENE
H-2A R/B 3.9 21:44:56 10° S 21:48:26 41° W 21:51:58 10° NNW
ERBS 2.7 21:45:23 10° NW 21:48:47 59° SW 21:51:07 19° SSE
Coronas F rocket 3.7 21:47:23 10° SW 21:49:37 24° W 21:51:52 10° NNW
Envisat 3.4 21:46:06 16° SE 21:49:52 44° ENE 21:54:40 10° N
COSMOS 2487 4.3 21:48:53 10° NNE 21:51:22 17° ENE 21:52:14 16° E
APEX 4.4 21:51:35 21° ESE 21:52:07 22° E 21:55:30 10° NE
SEDSat Delta rocket 3.9 21:49:14 10° SW 21:52:56 27° SSE 21:54:14 22° SE
Cosmos 1939 Rocket 2.9 21:53:44 20° SSE 21:56:11 55° ENE 22:00:01 10° N
TIMED 4.5 21:53:26 10° SSW 21:57:47 89° ESE 22:02:11 10° NNE
Cosmos 2341 Rocket 4.2 21:53:10 10° SSE 21:59:13 51° E 22:05:15 10° NNE
Cosmos 1975 Rocket 4.2 21:55:46 10° NNE 21:59:19 24° ENE 22:00:25 22° E
Atlas Centaur 2 1.5 21:56:09 10° WSW 21:59:33 40° S 22:00:48 29° SE
Cosmos 1420 Rocket 4.4 21:55:24 10° S 22:00:15 39° ESE 22:05:05 10° NE
OAO 1 Rocket 4.4 21:59:02 10° WSW 22:04:15 60° SSE 22:08:18 17° E
Cosmos 2084 3.6 22:00:43 10° SW 22:04:34 65° WNW 22:08:22 10° NNE
Cosmos 1908 Rocket 3.5 22:00:48 10° S 22:05:10 82° E 22:09:37 10° N
ERS-1 Rocket 3.0 22:02:39 13° S 22:07:13 80° WSW 22:12:16 10° NNW
Cosmos 1378 Rocket 3.6 22:07:06 10° N 22:11:21 55° E 22:13:08 31° SE
ATLAS 5 CENTAUR R/B 3.0 22:05:34 10° NW 22:11:34 55° WSW 22:16:44 16° S
Cosmos 407 Rocket 3.5 22:06:30 10° NNW 22:11:49 89° WSW 22:15:21 22° SSE
Cosmos 962 Rocket 4.4 22:07:40 10° S 22:13:45 67° E 22:19:53 10° NNE
H-2A R/B 4.0 22:13:15 13° ENE 22:14:24 13° ENE 22:16:53 10° NE
Meteor 2-6 Rocket 4.5 22:08:31 10° NNW 22:14:26 74° W 22:19:43 12° S
deb Chang Zheng 4 3.8 22:11:47 10° N 22:16:12 74° WNW 22:20:37 10° SSW
Cosmos 1140 Rocket 4.2 22:12:49 10° N 22:17:32 35° ENE 22:19:08 29° ESE
Cosmos 1452 Rocket 3.9 22:13:22 10° SSW 22:18:34 66° WNW 22:23:49 10° N
YAOGAN 6 3.4 22:18:38 32° ENE 22:18:41 32° ENE 22:21:51 10° N
Cosmos 1408 2.5 22:18:18 25° S 22:20:21 88° W 22:24:01 10° N
USA 245 4.5 22:21:41 23° ENE 22:21:41 23° ENE 22:24:27 10° NNE
CZ-4 SHROUD 4.0 22:23:22 36° NE 22:23:22 36° NE 22:25:55 10° N
Cosmos 1242 Rocket 3.5 22:21:38 10° NNE 22:24:43 32° ENE 22:24:43 32° ENE
Cosmos 1825 2.3 22:22:41 21° SSW 22:25:07 75° W 22:28:57 10° N
Cosmos 2154 Rocket 4.2 22:19:27 10° SSW 22:25:39 74° W 22:31:52 10° N
COSMOS 2406 4.4 22:20:48 10° NW 22:26:03 38° WSW 22:30:54 12° S
PSLV R/B 3.8 22:28:00 42° NE 22:28:00 42° NE 22:30:20 10° N
USA 234 3.8 22:23:08 10° ENE 22:28:55 33° SE 22:30:50 28° SSE
SPOT 1/Viking Rocket 4.1 22:28:03 34° ESE 22:29:27 41° ENE 22:34:19 10° N
CZ-4B R/B 3.6 22:25:30 10° NNE 22:30:13 47° E 22:31:08 41° SE
Cosmos 2278 Rocket 2.5 22:24:48 10° SSW 22:30:25 68° WNW 22:36:06 10° NNE
Cosmos 1833 Rocket 4.2 22:28:24 10° NNE 22:32:26 20° ENE 22:33:42 18° ENE
Cosmos 1295 Rocket 4.4 22:29:09 22° S 22:33:18 70° E 22:39:33 10° NNE
Cosmos 1184 Rocket 3.2 22:32:43 40° SW 22:33:41 63° W 22:37:00 10° N
H-2A R/B 2.4 22:32:34 28° S 22:34:39 60° WSW 22:38:52 10° NNW
MetOp-A 4.0 22:34:03 37° SSE 22:36:12 76° ENE 22:41:33 10° N
Meteor 1-14 Rocket 4.2 22:41:16 41° SSE 22:43:06 61° E 22:48:38 10° NNE
Cosmos 489 Rocket 4.4 22:38:44 10° NNW 22:44:56 75° ENE 22:47:05 43° SSE
ISS -0.3 22:45:55 10° WNW 22:48:13 18° NNW 22:50:32 10° NNE
CZ-3C R/B 3.5 22:27:37 10° WSW 22:49:04 31° SSW 22:50:58 29° S
Terra 3.3 22:52:21 23° ENE 22:52:21 23° ENE 22:55:39 10° NNE
Intercosmos 25 3.2 22:52:28 71° W 22:52:29 71° W 22:55:43 10° N
Cosmos 2366 rocket 4.0 22:51:57 46° SE 22:53:32 59° E 22:59:43 10° NNE
Cosmos 2082 Rocket 2.9 22:48:52 10° N 22:54:09 38° ENE 22:54:52 36° E
Cosmos 1850 Rocket 4.1 22:49:47 10° N 22:55:04 61° ENE 22:55:44 56° ESE
SL-08 RB Rocket 4.0 22:55:26 52° ENE 22:55:26 52° ENE 22:59:53 10° N
Cosmos 1238 Rocket 3.7 22:53:58 10° NNW 22:57:12 39° W 22:57:48 36° WSW
SPOT 5 3.6 22:55:02 33° SSW 22:57:13 55° W 23:02:29 10° NNW
Okean 2 Rocket 4.2 23:02:42 25° SW 23:04:44 41° W 23:08:55 10° N
Cosmos 2297 3.9 23:00:51 15° SSW 23:05:35 70° WNW 23:11:19 10° NNE
OAO 3 Rocket 3.3 23:03:58 10° WSW 23:08:12 63° SW 23:08:12 63° SW
NOAA 11 4.1 23:12:15 67° S 23:13:01 86° WSW 23:18:33 10° NNW
USA 229 DEB 4.2 23:08:24 10° NNW 23:15:17 49° NE 23:16:52 43° E
USA 229 4.2 23:08:30 10° NNW 23:15:23 49° NE 23:16:58 42° E
Cosmos 1741 Rocket 3.8 23:10:13 10° NNW 23:15:27 88° WSW 23:15:37 84° S
Cosmos 2218 Rocket 4.2 23:18:42 39° SSW 23:21:10 71° W 23:27:34 10° N
Cosmos 1110 Rocket 4.2 23:28:13 60° NE 23:28:13 60° NE 23:32:31 10° NNE
Timation 1 Rocket 4.2 23:27:35 79° S 23:27:59 86° ESE 23:34:02 10° NNE
Cosmos 2369 Rocket 4.3 23:42:12 14° NE 23:42:12 14° NE 23:43:13 10° NE
Cosmos 1727 Rocket 3.8 23:34:17 10° N 23:40:29 82° W 23:40:45 80° SW
Meteor 2-19 Rocket 4.5 23:44:09 68° WSW 23:44:40 72° W 23:50:48 10° N
ARGOS 4.1 23:46:45 38° WSW 23:47:01 39° W 23:52:00 10° NNW
H-2A R/B 2.5 23:53:53 61° WNW 23:53:53 61° WNW 23:58:31 10° NNW
